EW1479 Weather Reports


time (UTC)temp
C
wind
direction
speed
KPH
gust
KPH
rain 1hr
cm
rain 24hr
cm
rain mn
cm
humidity
%
barometer
mb
20260504201824 22 213 16.1 27.4 0.00 0.00 0.00 35 1008.3
20260504200319 22 260 6.4 22.5 0.00 0.00 0.00 42 1008.4
20260504194850 22 269 9.7 20.9 0.00 0.00 0.00 40 1008.7
20260504193314 22 252 11.3 20.9 0.00 0.00 0.00 41 1009.0
20260504191824 22 278 14.5 20.9 0.00 0.00 0.00 36 1009.3
20260504190339 21 277 14.5 25.7 0.00 0.00 0.00 40 1009.4
20260504184851 21 241 14.5 24.1 0.00 0.00 0.00 40 1009.4
20260504183317 21 248 12.9 22.5 0.00 0.00 0.00 40 1009.7
20260504181830 21 278 11.3 25.7 0.00 0.00 0.00 43 1009.8
20260504180329 21 241 11.3 19.3 0.00 0.00 0.00 49 1009.9
20260504174830 20 232 8.0 25.7 0.00 0.00 0.00 49 1009.9
20260504173332 20 203 11.3 27.4 0.00 0.00 0.00 48 1010.1
20260504171817 20 239 9.7 19.3 0.00 0.00 0.00 49 1010.1
20260504170331 20 248 12.9 24.1 0.00 0.00 0.00 48 1010.4
20260504160327 18 215 12.9 20.9 0.00 0.00 0.00 51 1010.9
20260504150331 16 228 12.9 22.5 0.00 0.00 0.00 53 1011.3
20260504140348 15 246 12.9 25.7 0.00 0.00 0.00 55 1011.5
20260504130333 13 242 16.1 22.5 0.00 0.00 0.00 56 1012.0
20260504110314 10 217 8.0 17.7 0.00 0.00 0.00 61 1012.1
20260504100339 10 212 11.3 17.7 0.00 0.00 0.00 61 1011.9
20260504081814 10 219 6.4 16.1 0.00 0.00 0.00 60 1012.8
20260504080322 10 240 6.4 16.1 0.00 0.00 0.00 60 1012.8
20260504070321 10 245 4.8 11.3 0.00 0.00 0.00 63 1013.2
20260504050323 10 242 6.4 11.3 0.00 0.00 0.00 61 1013.6
20260504044824 10 220 4.8 11.3 0.00 0.00 0.00 58 1013.7
20260504043318 11 242 4.8 11.3 0.00 0.00 0.00 59 1013.8
20260504041825 11 246 9.7 14.5 0.00 0.00 0.00 58 1013.8
20260504040318 11 217 9.7 12.9 0.00 0.00 0.00 58 1013.8
20260504034810 11 219 6.4 12.9 0.00 0.00 0.00 58 1013.7
20260504033328 11 226 8.0 19.3 0.00 0.00 0.00 59 1013.8
20260504031815 11 226 8.0 12.9 0.00 0.00 0.00 60 1013.8
20260504030311 11 220 6.4 11.3 0.00 0.00 0.00 59 1013.8
20260504024817 11 233 6.4 11.3 0.00 0.00 0.00 58 1013.8
20260504023330 12 231 8.0 20.9 0.00 0.00 0.00 55 1013.9
20260504021822 12 264 9.7 33.8 0.00 0.00 0.00 53 1014.1
20260504020328 12 252 11.3 32.2 0.00 0.00 0.00 54 1013.9
20260504014824 12 278 16.1 29.0 0.00 0.00 0.00 54 1014.2
20260504013312 12 273 9.7 19.3 0.00 0.00 0.00 51 1014.2
20260504011826 12 267 11.3 27.4 0.00 0.00 0.00 52 1013.9
20260504010315 12 263 14.5 30.6 0.00 0.00 0.00 52 1014.1
20260504004825 12 250 19.3 38.6 0.00 0.00 0.00 51 1014.2
20260504003315 12 264 19.3 30.6 0.00 0.00 0.00 51 1014.3
20260504001826 12 273 19.3 43.5 0.00 0.00 0.00 49 1014.4
20260504000311 12 243 11.3 29.0 0.00 0.00 0.00 49 1014.3
20260503234824 12 274 9.7 25.7 0.00 0.00 0.00 49 1014.2
20260503233320 12 289 19.3 32.2 0.00 0.00 0.00 48 1014.2
20260503231810 12 284 27.4 40.2 0.00 0.00 0.00 46 1014.1
20260503230343 13 291 20.9 38.6 0.00 0.00 0.00 47 1014.1
20260503224834 13 275 22.5 43.5 0.00 0.00 0.00 46 1013.9
20260503223322 13 307 17.7 40.2 0.00 0.00 0.00 43 1013.6
20260503221835 13 275 11.3 25.7 0.00 0.00 0.00 44 1013.5
20260503220324 13 275 16.1 29.0 0.00 0.00 0.00 43 1013.6
20260503214836 13 250 11.3 32.2 0.00 0.00 0.00 43 1013.4
20260503213324 13 256 22.5 37.0 0.00 0.00 0.00 40 1013.4
20260503211820 14 270 16.1 37.0 0.00 0.00 0.00 42 1013.3
20260503210354 15 253 16.1 30.6 0.00 0.00 0.00 42 1013.3
20260503204841 14 290 14.5 24.1 0.00 0.00 0.00 44 1013.5
20260503203311 13 293 17.7 35.4 0.00 0.00 0.00 43 1013.6